FW6664 Weather Reports


Display with metric or nautical units.
time (UTC)temp
F
wind
direction
speed
MPH
gust
MPH
rain 1hr
in
rain 24hr
in
rain mn
in
humidity
%
barometer
mb
20260507195559 71 186 3.0 6.0 0.00 0.00 0.00 33 1017.0
20260507195337 71 294 4.0 0.0 0.00 0.00 0.00 33 1017.0
20260507195056 71 291 5.0 9.0 0.00 0.00 0.00 33 1017.0
20260507194859 72 269 4.0 0.0 0.00 0.00 0.00 33 1017.0
20260507194533 71 240 4.0 10.0 0.00 0.00 0.00 33 1017.0
20260507194330 71 214 6.0 0.0 0.00 0.00 0.00 33 1017.0
20260507194016 71 210 8.0 10.0 0.00 0.00 0.00 33 1017.0
20260507193907 71 279 8.0 0.0 0.00 0.00 0.00 33 1017.0
20260507193549 70 263 5.0 6.0 0.00 0.00 0.00 33 1017.0
20260507193341 71 253 5.0 0.0 0.00 0.00 0.00 33 1017.0
20260507193019 70 199 2.0 7.0 0.00 0.00 0.00 33 1017.0
20260507192837 71 253 3.0 0.0 0.00 0.00 0.00 33 1017.0
20260507192511 70 249 2.0 7.0 0.00 0.00 0.00 33 1017.0
20260507192334 70 262 6.0 0.0 0.00 0.00 0.00 33 1017.0
20260507192005 70 262 5.0 6.0 0.00 0.00 0.00 33 1017.0
20260507191849 70 219 8.0 0.0 0.00 0.00 0.00 33 1017.0
20260507191534 70 208 4.0 6.0 0.00 0.00 0.00 33 1017.0
20260507191343 70 252 7.0 0.0 0.00 0.00 0.00 33 1017.0
20260507191005 70 205 3.0 6.0 0.00 0.00 0.00 33 1017.0
20260507190857 70 204 4.0 0.0 0.00 0.00 0.00 33 1017.0
20260507190533 70 281 5.0 6.0 0.00 0.00 0.00 33 1017.0
20260507190330 71 223 4.0 0.0 0.00 0.00 0.00 33 1017.0
20260507190039 71 216 4.0 6.0 0.00 0.00 0.00 33 1017.0
20260507185846 71 290 8.0 0.0 0.00 0.00 0.00 33 1017.0
20260507185520 71 246 3.0 8.0 0.00 0.00 0.00 33 1017.0
20260507185339 72 232 7.0 0.0 0.00 0.00 0.00 33 1017.0
20260507185010 72 213 7.0 8.0 0.00 0.00 0.00 33 1017.0
20260507184834 73 263 8.0 0.0 0.00 0.00 0.00 33 1017.0
20260507184558 72 222 3.0 5.0 0.00 0.00 0.00 33 1017.0
20260507184502 72 282 2.0 5.0 0.00 0.00 0.00 33 1017.0
20260507184327 72 243 7.0 0.0 0.00 0.00 0.00 33 1017.0
20260507184051 72 291 4.0 6.0 0.00 0.00 0.00 33 1017.0
20260507183906 72 295 5.0 0.0 0.00 0.00 0.00 33 1017.0
20260507183525 71 298 2.0 6.0 0.00 0.00 0.00 33 1017.0
20260507183341 71 299 5.0 0.0 0.00 0.00 0.00 33 1017.0
20260507183019 70 300 5.0 6.0 0.00 0.00 0.00 33 1017.0
20260507182834 71 295 3.0 0.0 0.00 0.00 0.00 33 1017.0
20260507182509 70 238 2.0 5.0 0.00 0.00 0.00 33 1017.0
20260507182350 70 238 5.0 0.0 0.00 0.00 0.00 33 1017.0
20260507182037 69 284 1.0 5.0 0.00 0.00 0.00 33 1017.0
20260507181845 70 284 2.0 0.0 0.00 0.00 0.00 33 1017.0
20260507181508 69 283 4.0 5.0 0.00 0.00 0.00 33 1017.0
20260507181339 69 286 9.0 0.0 0.00 0.00 0.00 33 1017.0
20260507181101 69 257 1.0 7.0 0.00 0.00 0.00 33 1017.0
20260507181002 68 295 1.0 7.0 0.00 0.00 0.00 33 1017.0
20260507180833 69 300 2.0 0.0 0.00 0.00 0.00 33 1017.0
20260507180531 68 273 2.0 7.0 0.00 0.00 0.00 33 1017.0
20260507180329 69 273 2.0 0.0 0.00 0.00 0.00 33 1017.0
20260507180028 68 292 3.0 6.0 0.00 0.00 0.00 33 1017.0
20260507175829 68 270 5.0 0.0 0.00 0.00 0.00 33 1017.0
20260507175525 68 290 3.0 3.0 0.00 0.00 0.00 33 1017.0
20260507175408 68 311 5.0 0.0 0.00 0.00 0.00 33 1017.0
20260507175051 67 261 2.0 5.0 0.00 0.00 0.00 33 1017.0
20260507174905 68 265 5.0 0.0 0.00 0.00 0.00 33 1017.0
20260507174531 67 200 2.0 5.0 0.00 0.00 0.00 33 1017.0
20260507174339 67 250 5.0 0.0 0.00 0.00 0.00 33 1017.0
20260507174018 67 250 2.0 6.0 0.00 0.00 0.00 33 1017.0
20260507173834 67 305 5.0 0.0 0.00 0.00 0.00 33 1017.0
20260507173520 67 308 3.0 6.0 0.00 0.00 0.00 33 1017.0
20260507173334 67 303 4.0 0.0 0.00 0.00 0.00 33 1017.0
20260507173017 66 296 1.0 5.0 0.00 0.00 0.00 33 1017.0
20260507172833 67 291 6.0 0.0 0.00 0.00 0.00 33 1017.0
20260507172557 66 281 3.0 5.0 0.00 0.00 0.00 33 1017.0
20260507172501 66 294 2.0 5.0 0.00 0.00 0.00 33 1017.0
20260507172348 66 294 3.0 0.0 0.00 0.00 0.00 33 1017.0
20260507172030 65 294 4.0 5.0 0.00 0.00 0.00 33 1017.0
20260507171844 66 298 7.0 0.0 0.00 0.00 0.00 33 1017.0
20260507171523 65 298 4.0 5.0 0.00 0.00 0.00 33 1017.0
20260507171339 65 299 5.0 0.0 0.00 0.00 0.00 33 1017.0
20260507171018 64 292 2.0 5.0 0.00 0.00 0.00 33 1017.0
20260507170836 64 292 3.0 0.0 0.00 0.00 0.00 33 1017.0
20260507170509 63 321 3.0 4.0 0.00 0.00 0.00 33 1017.0
20260507170330 64 328 1.0 0.0 0.00 0.00 0.00 33 1017.0
20260507170010 63 328 3.0 6.0 0.00 0.00 0.00 33 1017.0
20260507165848 64 304 4.0 0.0 0.00 0.00 0.00 33 1017.0
20260507165556 63 288 2.0 6.0 0.00 0.00 0.00 33 1017.0
20260507165344 63 283 2.0 0.0 0.00 0.00 0.00 33 1017.0
20260507165051 63 279 4.0 6.0 0.00 0.00 0.00 33 1017.0
20260507164842 63 293 5.0 0.0 0.00 0.00 0.00 33 1017.0
20260507164603 62 298 3.0 6.0 0.00 0.00 0.00 33 1017.0
20260507164335 63 299 4.0 0.0 0.00 0.00 0.00 33 1017.0
20260507164134 62 303 6.0 6.0 0.00 0.00 0.00 33 1017.0
20260507150336 59 310 2.0 0.0 0.00 0.00 0.00 33 1017.0
20260507150108 58 311 2.0 2.0 0.00 0.00 0.00 33 1017.0
20260507090342 57 292 0.0 0.0 0.00 0.00 0.00 33 1017.0
20260507090050 56 292 0.0 0.0 0.00 0.00 0.00 33 1017.0
20260507061853 58 292 2.0 0.0 0.00 0.00 0.00 33 1017.0
20260507061536 57 292 2.0 2.0 0.00 0.00 0.00 33 1017.0
20260507061327 58 292 2.0 0.0 0.00 0.00 0.00 33 1017.0
20260507061026 57 292 0.0 2.0 0.00 0.00 0.00 33 1017.0
20260507060906 58 292 2.0 0.0 0.00 0.00 0.00 33 1017.0
20260507060559 57 292 1.0 2.0 0.00 0.00 0.00 33 1017.0
20260507060359 58 292 3.0 0.0 0.00 0.00 0.00 33 1017.0
20260507060022 58 292 2.0 3.0 0.00 0.00 0.00 33 1017.0
20260507055905 58 292 2.0 0.0 0.00 0.00 0.00 33 1017.0
20260507055547 58 292 1.0 3.0 0.00 0.00 0.00 33 1017.0
20260507055340 58 292 3.0 0.0 0.00 0.00 0.00 33 1017.0
20260507055041 57 292 2.0 3.0 0.00 0.00 0.00 33 1017.0
20260507054835 58 292 4.0 0.0 0.00 0.00 0.00 33 1017.0
20260507054538 58 292 1.0 1.0 0.00 0.00 0.00 33 1017.0
20260507054332 58 292 2.0 0.0 0.00 0.00 0.00 33 1017.0
20260507054032 57 292 1.0 1.0 0.00 0.00 0.00 33 1017.0
20260507053852 58 292 2.0 0.0 0.00 0.00 0.00 33 1017.0
20260507053601 57 292 0.0 1.0 0.00 0.00 0.00 33 1017.0
20260507053504 58 292 0.0 1.0 0.00 0.00 0.00 33 1017.0
20260507053326 58 292 1.0 0.0 0.00 0.00 0.00 33 1017.0
20260507053053 58 293 0.0 1.0 0.00 0.00 0.00 33 1017.0
20260507052843 58 292 0.0 0.0 0.00 0.00 0.00 33 1017.0
20260507052547 58 292 0.0 0.0 0.00 0.00 0.00 33 1017.0
20260507052357 58 292 0.0 0.0 0.00 0.00 0.00 33 1017.0
20260507052019 58 292 0.0 1.0 0.00 0.00 0.00 33 1017.0
20260507051832 58 292 1.0 0.0 0.00 0.00 0.00 33 1017.0
20260507051513 58 292 0.0 1.0 0.00 0.00 0.00 33 1017.0
20260507051330 58 292 1.0 0.0 0.00 0.00 0.00 33 1017.0
20260507051007 58 292 0.0 0.0 0.00 0.00 0.00 33 1017.0
20260507050909 58 292 0.0 0.0 0.00 0.00 0.00 33 1017.0
20260507050532 58 292 0.0 0.0 0.00 0.00 0.00 33 1017.0
20260507050341 58 292 0.0 0.0 0.00 0.00 0.00 33 1017.0
20260507050030 58 292 0.0 0.0 0.00 0.00 0.00 33 1017.0
20260507045838 59 292 0.0 0.0 0.00 0.00 0.00 33 1017.0
20260507045526 58 292 0.0 0.0 0.00 0.00 0.00 33 1017.0
20260507045355 59 292 2.0 0.0 0.00 0.00 0.00 33 1017.0
20260507045054 58 292 0.0 0.0 0.00 0.00 0.00 33 1017.0
20260507044832 59 292 1.0 0.0 0.00 0.00 0.00 33 1017.0
20260507044604 58 292 0.0 0.0 0.00 0.00 0.00 33 1017.0
20260507044328 59 292 1.0 0.0 0.00 0.00 0.00 33 1017.0
20260507044042 58 292 0.0 0.0 0.00 0.00 0.00 33 1017.0
20260507043843 59 292 0.0 0.0 0.00 0.00 0.00 33 1017.0
20260507043535 59 292 0.0 1.0 0.00 0.00 0.00 33 1017.0
20260507043402 59 292 0.0 0.0 0.00 0.00 0.00 33 1017.0
20260507043019 59 292 0.0 1.0 0.00 0.00 0.00 33 1017.0
20260507042856 59 292 2.0 0.0 0.00 0.00 0.00 33 1017.0
20260507042539 59 292 0.0 1.0 0.00 0.00 0.00 33 1017.0
20260507042331 59 292 1.0 0.0 0.00 0.00 0.00 33 1017.0
20260507042037 59 292 1.0 1.0 0.00 0.00 0.00 33 1017.0
20260507041827 59 292 1.0 0.0 0.00 0.00 0.00 33 1017.0
20260507041526 59 292 1.0 4.0 0.00 0.00 0.00 33 1017.0
20260507041328 60 292 3.0 0.0 0.00 0.00 0.00 33 1017.0
20260507041022 59 292 1.0 4.0 0.00 0.00 0.00 33 1017.0
20260507040845 60 292 2.0 0.0 0.00 0.00 0.00 33 1017.0
20260507040559 59 293 2.0 5.0 0.00 0.00 0.00 33 1017.0
20260507040503 59 292 1.0 5.0 0.00 0.00 0.00 33 1017.0
20260507040329 60 293 3.0 0.0 0.00 0.00 0.00 33 1017.0
20260507040055 59 292 3.0 5.0 0.00 0.00 0.00 33 1017.0
20260507035848 60 293 6.0 0.0 0.00 0.00 0.00 33 1017.0
20260507035530 60 295 3.0 5.0 0.00 0.00 0.00 33 1017.0
20260507035325 60 292 5.0 0.0 0.00 0.00 0.00 33 1017.0
20260507035007 60 293 3.0 5.0 0.00 0.00 0.00 33 1017.0
20260507034902 60 297 4.0 0.0 0.00 0.00 0.00 33 1017.0
20260507034537 60 291 3.0 6.0 0.00 0.00 0.00 33 1017.0
20260507034340 60 291 4.0 0.0 0.00 0.00 0.00 33 1017.0
20260507034009 60 292 3.0 7.0 0.00 0.00 0.00 33 1017.0
20260507033836 61 298 4.0 0.0 0.00 0.00 0.00 33 1017.0
20260507033505 60 289 4.0 7.0 0.00 0.00 0.00 33 1017.0
20260507033332 61 285 6.0 0.0 0.00 0.00 0.00 33 1017.0
20260507033057 60 289 5.0 6.0 0.00 0.00 0.00 33 1017.0
20260507032829 61 287 8.0 0.0 0.00 0.00 0.00 33 1017.0
20260507032552 61 290 4.0 7.0 0.00 0.00 0.00 33 1017.0
20260507032325 61 292 7.0 0.0 0.00 0.00 0.00 33 1017.0
20260507032045 61 293 5.0 7.0 0.00 0.00 0.00 33 1017.0
20260507031842 61 301 7.0 0.0 0.00 0.00 0.00 33 1017.0
20260507031518 61 293 6.0 7.0 0.00 0.00 0.00 33 1017.0
20260507031337 61 293 5.0 0.0 0.00 0.00 0.00 33 1017.0
20260507031048 61 294 4.0 7.0 0.00 0.00 0.00 33 1017.0
20260507030833 62 297 4.0 0.0 0.00 0.00 0.00 33 1017.0
20260507030541 61 294 4.0 7.0 0.00 0.00 0.00 33 1017.0
20260507030331 62 292 5.0 0.0 0.00 0.00 0.00 33 1017.0
20260507030038 61 290 5.0 6.0 0.00 0.00 0.00 33 1017.0
20260507025826 62 289 7.0 0.0 0.00 0.00 0.00 33 1017.0
20260507025529 62 291 6.0 9.0 0.00 0.00 0.00 33 1017.0
20260507025405 62 288 4.0 0.0 0.00 0.00 0.00 33 1017.0
20260507025100 62 282 5.0 9.0 0.00 0.00 0.00 33 1017.0
20260507025004 62 290 5.0 9.0 0.00 0.00 0.00 33 1017.0
20260507024840 62 290 7.0 0.0 0.00 0.00 0.00 33 1017.0
20260507024556 62 288 7.0 9.0 0.00 0.00 0.00 33 1017.0
20260507024337 63 291 9.0 0.0 0.00 0.00 0.00 33 1017.0
20260507024048 62 289 6.0 8.0 0.00 0.00 0.00 33 1017.0
20260507023833 63 297 5.0 0.0 0.00 0.00 0.00 33 1017.0
20260507023542 63 300 4.0 7.0 0.00 0.00 0.00 33 1017.0
20260507023329 63 297 9.0 0.0 0.00 0.00 0.00 33 1017.0
20260507023038 63 290 5.0 6.0 0.00 0.00 0.00 33 1017.0
20260507022825 64 287 9.0 0.0 0.00 0.00 0.00 33 1017.0
20260507022532 63 299 5.0 7.0 0.00 0.00 0.00 33 1017.0
20260507022404 64 288 8.0 0.0 0.00 0.00 0.00 33 1017.0
20260507022004 64 290 6.0 7.0 0.00 0.00 0.00 33 1017.0
20260507021836 64 287 10.0 0.0 0.00 0.00 0.00 33 1017.0
20260507021554 64 296 5.0 8.0 0.00 0.00 0.00 33 1017.0
20260507021353 65 306 7.0 0.0 0.00 0.00 0.00 33 1017.0
20260507021030 65 295 6.0 8.0 0.00 0.00 0.00 33 1017.0
20260507020829 65 288 11.0 0.0 0.00 0.00 0.00 33 1017.0
20260507020522 65 268 7.0 11.0 0.00 0.00 0.00 33 1017.0
20260507020326 66 273 8.0 0.0 0.00 0.00 0.00 33 1017.0
20260507020009 65 290 9.0 11.0 0.00 0.00 0.00 33 1017.0
20260507015837 66 281 6.0 0.0 0.00 0.00 0.00 33 1017.0
20260507015600 66 295 4.0 7.0 0.00 0.00 0.00 33 1017.0
20260507015504 66 300 4.0 7.0 0.00 0.00 0.00 33 1017.0
20260507015337 66 289 7.0 0.0 0.00 0.00 0.00 33 1017.0
20260507015055 66 304 6.0 7.0 0.00 0.00 0.00 33 1017.0
20260507014834 67 287 8.0 0.0 0.00 0.00 0.00 33 1017.0
20260507014547 67 294 6.0 9.0 0.00 0.00 0.00 33 1017.0
20260507014329 67 294 7.0 0.0 0.00 0.00 0.00 33 1017.0
20260507014041 67 277 5.0 9.0 0.00 0.00 0.00 33 1017.0
20260507013846 68 286 4.0 0.0 0.00 0.00 0.00 33 1017.0
20260507013532 67 285 7.0 8.0 0.00 0.00 0.00 33 1017.0
20260507013401 68 269 7.0 0.0 0.00 0.00 0.00 33 1017.0
20260507013006 68 308 4.0 8.0 0.00 0.00 0.00 33 1017.0
20260507012836 68 296 4.0 0.0 0.00 0.00 0.00 33 1017.0
20260507012555 68 289 4.0 8.0 0.00 0.00 0.00 33 1017.0
20260507012331 68 289 3.0 0.0 0.00 0.00 0.00 33 1017.0
20260507012050 68 296 5.0 9.0 0.00 0.00 0.00 33 1017.0
20260507011829 69 285 5.0 0.0 0.00 0.00 0.00 33 1017.0
20260507011547 68 272 4.0 9.0 0.00 0.00 0.00 33 1017.0
20260507011405 69 281 3.0 0.0 0.00 0.00 0.00 33 1017.0
20260507011018 68 299 7.0 9.0 0.00 0.00 0.00 33 1017.0
20260507010902 69 296 9.0 0.0 0.00 0.00 0.00 33 1017.0
20260507010547 68 309 5.0 8.0 0.00 0.00 0.00 33 1017.0
20260507010336 69 297 10.0 0.0 0.00 0.00 0.00 33 1017.0
20260507010044 69 299 5.0 8.0 0.00 0.00 0.00 33 1017.0
20260507005833 69 271 6.0 0.0 0.00 0.00 0.00 33 1017.0
20260507005537 69 305 2.0 11.0 0.00 0.00 0.00 33 1017.0
20260507005352 69 292 5.0 0.0 0.00 0.00 0.00 33 1017.0
20260507005010 69 286 6.0 11.0 0.00 0.00 0.00 33 1017.0
20260507004826 69 280 7.0 0.0 0.00 0.00 0.00 33 1017.0
20260507004505 69 302 3.0 8.0 0.00 0.00 0.00 33 1017.0
20260507004343 70 294 5.0 0.0 0.00 0.00 0.00 33 1017.0
20260507004056 69 289 6.0 10.0 0.00 0.00 0.00 33 1017.0
20260507003839 70 276 6.0 0.0 0.00 0.00 0.00 33 1017.0
20260507003550 69 290 7.0 10.0 0.00 0.00 0.00 33 1017.0
20260507003336 70 290 4.0 0.0 0.00 0.00 0.00 33 1017.0
20260507003046 69 290 9.0 10.0 0.00 0.00 0.00 33 1017.0
20260506210338 71 285 10.0 0.0 0.00 0.00 0.00 33 1017.0
20260506210104 71 280 5.0 6.0 0.00 0.00 0.00 33 1017.0